Home   Weather   Paphos   Past weeks

Flag for Cyprus Past Weather in Paphos, Cyprus — Yesterday and Last 2 Weeks

Now
66 °F

Passing clouds.


Feels Like: 66 °F
Forecast: 68 / 82 °F
Wind: 7 mph from Northeast

Location: Paphos Airport

Current Time: Sep 27, 2016 at 3:19:47 AM

Latest Report: Sep 27, 2016 at 3:00 AM


Visibility: N/A

Pressure: 29.92 "Hg

Humidity: 68%

Dew Point: 55 °F

Location of PaphosLocation

Past Weather in Paphos — Graph

°F

Paphos Temperature Yesterday

Maximum temperature yesterday: 82 °F (at 12:00 PM)
Minimum temperature yesterday: 64 °F (at 4:00 AM)
Average temperature yesterday: 73 °F

High & Low Weather Summary for the Past Weeks

 TemperatureHumidityPressure
High86 °F (Sep 16, 1:00 PM)94% (Sep 19, 10:00 PM)30.01 "Hg (Sep 19, 10:00 PM)
Low64 °F (Sep 18, 4:00 AM)48% (Sep 24, 9:30 AM)29.80 "Hg (Sep 13, 4:00 AM)
Average77 °F67%29.87 "Hg
* Reported Sep 12 2:00 AM — Sep 27 2:00 AM, Paphos, Weather by CustomWeather, © 2016

Note: Actual official high and low records may vary slightly from our data, if they occured in-between our weather recording intervals... More about our weather records

Advertising

Paphos Weather History for the Previous 24 Hours

Scroll right to see more
 ConditionsComfort  
Time TempWeatherWind HumidityBarometerVisibility
2:00 AM
Tue, Sep 27
66 °FPassing clouds.7 mph68%29.92 "HgN/A
1:30 AM66 °FPassing clouds.7 mph68%29.92 "HgN/A
1:00 AM66 °FPassing clouds.6 mph68%29.92 "HgN/A
12:30 AM66 °FPassing clouds.7 mph68%29.92 "HgN/A
12:00 AM68 °FPassing clouds.7 mph64%29.92 "HgN/A
11:30 PM
Mon, Sep 26
68 °FPassing clouds.8 mph64%29.95 "HgN/A
11:00 PM66 °FPassing clouds.7 mph68%29.95 "HgN/A
10:30 PM66 °FPassing clouds.8 mph64%29.95 "HgN/A
10:00 PM66 °FPassing clouds.7 mph60%29.95 "HgN/A
9:30 PM68 °FPassing clouds.5 mph60%29.92 "HgN/A
9:00 PM70 °FPassing clouds.5 mph57%29.92 "HgN/A
8:30 PM73 °FPassing clouds.6 mph53%29.92 "HgN/A
8:00 PM75 °FPassing clouds.8 mph54%29.92 "HgN/A
7:30 PM75 °FPassing clouds.9 mph57%29.89 "HgN/A
7:00 PM75 °FPassing clouds.9 mph61%29.89 "HgN/A
6:30 PM75 °FPassing clouds.9 mph65%29.89 "HgN/A
6:00 PM77 °FPassing clouds.12 mph57%29.89 "HgN/A
5:30 PM77 °FPassing clouds.10 mph57%29.89 "HgN/A
5:00 PM79 °FPassing clouds.12 mph54%29.89 "HgN/A
4:30 PM79 °FPassing clouds.12 mph54%29.89 "HgN/A
4:00 PM81 °FPassing clouds.10 mph51%29.89 "HgN/A
3:30 PM81 °FPassing clouds.10 mph54%29.89 "HgN/A
3:00 PM81 °FPassing clouds.12 mph54%29.89 "HgN/A
2:30 PM79 °FPassing clouds.12 mph54%29.89 "HgN/A
2:00 PM81 °FPassing clouds.12 mph51%29.89 "HgN/A
1:30 PM82 °FScattered clouds.10 mph51%29.89 "HgN/A
1:00 PM81 °FPassing clouds.12 mph51%29.89 "HgN/A
12:30 PM82 °FPassing clouds.10 mph51%29.89 "HgN/A
12:00 PM82 °FPassing clouds.8 mph51%29.89 "HgN/A
11:30 AM81 °FPassing clouds.9 mph51%29.89 "HgN/A
11:00 AM81 °FPassing clouds.9 mph51%29.89 "HgN/A
10:30 AM79 °FPassing clouds.8 mph54%29.89 "HgN/A
10:00 AM79 °FPassing clouds.6 mph54%29.89 "HgN/A
9:30 AM79 °FScattered clouds.2 mph51%29.89 "HgN/A
9:00 AM77 °FScattered clouds.3 mph51%29.89 "HgN/A
8:30 AM73 °FScattered clouds.7 mph53%29.89 "HgN/A
8:00 AM70 °FPassing clouds.7 mph57%29.86 "HgN/A
7:30 AM68 °FPassing clouds.9 mph60%29.86 "HgN/A
7:00 AM64 °FPassing clouds.9 mph64%29.86 "HgN/A
6:30 AM64 °FPassing clouds.8 mph64%29.86 "HgN/A
6:00 AM64 °FPassing clouds.8 mph64%29.86 "HgN/A
5:30 AM64 °FClear.7 mph64%29.86 "Hg10 mi
5:00 AM64 °FClear.9 mph64%29.86 "Hg10 mi
4:30 AM64 °FClear.9 mph64%29.86 "Hg10 mi
4:00 AM64 °FMild.8 mph64%29.86 "HgN/A
3:30 AM66 °FMild.8 mph60%29.86 "HgN/A
3:00 AM66 °FMild.8 mph60%29.86 "HgN/A
Weather by CustomWeather, © 2016

See weather overviewHow to use our weather pages